^^
Your Local Weather - Clay, NY Station Historical Data
Daily Summary for March 5, 2018 Units:  English    Metric   Both
« Previous Day
Next Day »
Daily Weekly Monthly Yearly Custom
  High: Low: Average:
Temperature: 35.3 °F 26.5 °F 29.7 °F
Dew Point: 24.1 °F 16.8 °F 21.6 °F
Humidity: 79% 61% 72%
Wind Speed: 6.0mph 0.0mph 2.7mph
Wind Gust: 11.0mph - -
Wind- - WNW
Pressure: 30.21 in 30.10 in -
Precipitation: 0.02 in    
Historical Graphs
 
 
Tabular Data for March 5, 2018
Time Temperature Dew Point Pressure Wind Wind Speed Wind Gust Humidity Rainfall Rate (Hourly) solar
00:04 28.2 °F 16.8 °F 30.21 in NW 1.0 mph 2.0 mph 62% 0.00 in 0 W/m2
00:10 28.2 °F 16.8 °F 30.21 in NW 2.0 mph 2.0 mph 62% 0.00 in 0 W/m2
00:16 28.3 °F 16.9 °F 30.21 in NNW 2.0 mph 7.0 mph 62% 0.00 in 0 W/m2
00:22 28.3 °F 17.3 °F 30.21 in NW 2.0 mph 4.0 mph 63% 0.00 in 0 W/m2
00:28 28.6 °F 17.6 °F 30.21 in NNW 3.0 mph 5.0 mph 63% 0.00 in 0 W/m2
00:34 28.7 °F 17.3 °F 30.21 in North 3.0 mph 6.0 mph 62% 0.00 in 0 W/m2
00:40 28.7 °F 17.3 °F 30.21 in NW 3.0 mph 3.0 mph 62% 0.00 in 0 W/m2
00:46 28.7 °F 17.7 °F 30.21 in NW 2.0 mph 3.0 mph 63% 0.00 in 0 W/m2
00:52 28.7 °F 17.7 °F 30.21 in NW 1.0 mph 1.0 mph 63% 0.00 in 0 W/m2
00:58 28.7 °F 17.7 °F 30.21 in NNW 2.0 mph 4.0 mph 63% 0.00 in 0 W/m2
01:04 28.7 °F 18.1 °F 30.21 in NNW 2.0 mph 2.0 mph 64% 0.00 in 0 W/m2
01:10 28.7 °F 18.1 °F 30.20 in NNW 1.0 mph 1.0 mph 64% 0.00 in 0 W/m2
01:16 28.6 °F 18.3 °F 30.20 in NNW 1.0 mph 4.0 mph 65% 0.00 in 0 W/m2
01:22 28.6 °F 18.3 °F 30.20 in NW 2.0 mph 5.0 mph 65% 0.00 in 0 W/m2
01:28 28.7 °F 18.1 °F 30.20 in NNW 3.0 mph 5.0 mph 64% 0.00 in 0 W/m2
01:34 28.7 °F 18.4 °F 30.20 in NNW 2.0 mph 3.0 mph 65% 0.00 in 0 W/m2
01:40 28.6 °F 18.3 °F 30.20 in NNW 1.0 mph 2.0 mph 65% 0.00 in 0 W/m2
01:46 28.5 °F 18.6 °F 30.20 in NW 1.0 mph 2.0 mph 66% 0.00 in 0 W/m2
01:52 28.4 °F 18.5 °F 30.20 in NW 1.0 mph 3.0 mph 66% 0.00 in 0 W/m2
01:58 28.4 °F 18.5 °F 30.20 in NW 2.0 mph 3.0 mph 66% 0.00 in 0 W/m2
02:04 28.5 °F 18.6 °F 30.20 in NW 2.0 mph 6.0 mph 66% 0.00 in 0 W/m2
02:10 28.5 °F 18.6 °F 30.20 in NW 2.0 mph 2.0 mph 66% 0.00 in 0 W/m2
02:16 28.4 °F 18.5 °F 30.20 in Calm   2.0 mph 66% 0.00 in 0 W/m2
02:22 28.3 °F 18.7 °F 30.20 in Calm     67% 0.00 in 0 W/m2
02:28 28.2 °F 18.6 °F 30.20 in WNW 1.0 mph 5.0 mph 67% 0.00 in 0 W/m2
02:34 28.4 °F 19.2 °F 30.20 in North 2.0 mph 3.0 mph 68% 0.00 in 0 W/m2
02:40 28.4 °F 19.2 °F 30.20 in North 1.0 mph 3.0 mph 68% 0.00 in 0 W/m2
02:46 28.3 °F 19.1 °F 30.20 in NNW 1.0 mph 3.0 mph 68% 0.00 in 0 W/m2
02:52 28.3 °F 19.1 °F 30.20 in NNW 1.0 mph 4.0 mph 68% 0.00 in 0 W/m2
02:58 28.3 °F 19.1 °F 30.20 in NNW 1.0 mph 4.0 mph 68% 0.00 in 0 W/m2
03:04 28.2 °F 19.3 °F 30.20 in NNW 1.0 mph 2.0 mph 69% 0.00 in 0 W/m2
03:10 28.3 °F 19.1 °F 30.20 in NW 3.0 mph 3.0 mph 68% 0.00 in 0 W/m2
03:16 28.3 °F 19.4 °F 30.19 in NNW 3.0 mph 5.0 mph 69% 0.00 in 0 W/m2
03:22 28.2 °F 19.3 °F 30.19 in NNE 3.0 mph 5.0 mph 69% 0.00 in 0 W/m2
03:28 28.2 °F 19.3 °F 30.20 in NNW 3.0 mph 5.0 mph 69% 0.00 in 0 W/m2
03:34 28.2 °F 19.3 °F 30.20 in NNW 4.0 mph 6.0 mph 69% 0.00 in 0 W/m2
03:40 28.1 °F 19.6 °F 30.20 in NNW 3.0 mph 3.0 mph 70% 0.00 in 0 W/m2
03:46 28.1 °F 19.6 °F 30.20 in NNW 3.0 mph 6.0 mph 70% 0.00 in 0 W/m2
03:52 28.0 °F 19.8 °F 30.20 in NW 3.0 mph 6.0 mph 71% 0.00 in 0 W/m2
03:58 28.0 °F 19.8 °F 30.20 in North 3.0 mph 6.0 mph 71% 0.00 in 0 W/m2
04:04 28.0 °F 19.8 °F 30.20 in NW 3.0 mph 4.0 mph 71% 0.00 in 0 W/m2
04:10 28.0 °F 19.8 °F 30.19 in NNW 4.0 mph 4.0 mph 71% 0.00 in 0 W/m2
04:16 27.9 °F 20.0 °F 30.19 in North 3.0 mph 4.0 mph 72% 0.00 in 0 W/m2
04:22 27.9 °F 20.0 °F 30.19 in NNW 3.0 mph 4.0 mph 72% 0.00 in 0 W/m2
04:28 27.8 °F 19.9 °F 30.19 in North 4.0 mph 6.0 mph 72% 0.00 in 0 W/m2
04:34 27.8 °F 19.9 °F 30.19 in North 4.0 mph 4.0 mph 72% 0.00 in 0 W/m2
04:40 27.7 °F 19.8 °F 30.19 in NW 4.0 mph 4.0 mph 72% 0.00 in 0 W/m2
04:46 27.7 °F 19.8 °F 30.19 in North 3.0 mph 4.0 mph 72% 0.00 in 0 W/m2
04:52 27.6 °F 20.1 °F 30.19 in NNE 3.0 mph 6.0 mph 73% 0.00 in 0 W/m2
04:58 27.6 °F 20.1 °F 30.19 in NW 4.0 mph 8.0 mph 73% 0.00 in 0 W/m2
05:04 27.6 °F 20.1 °F 30.19 in North 4.0 mph 5.0 mph 73% 0.00 in 0 W/m2
05:10 27.4 °F 19.9 °F 30.19 in NNW 3.0 mph 4.0 mph 73% 0.00 in 0 W/m2
05:16 27.3 °F 19.8 °F 30.19 in North 3.0 mph 4.0 mph 73% 0.00 in 0 W/m2
05:22 27.2 °F 19.7 °F 30.19 in North 3.0 mph 7.0 mph 73% 0.00 in 0 W/m2
05:28 27.2 °F 20.0 °F 30.19 in NNW 4.0 mph 8.0 mph 74% 0.00 in 0 W/m2
05:34 27.1 °F 19.9 °F 30.19 in NW 3.0 mph 4.0 mph 74% 0.00 in 0 W/m2
05:40 27.0 °F 19.8 °F 30.20 in North 4.0 mph 6.0 mph 74% 0.00 in 0 W/m2
05:46 27.0 °F 19.8 °F 30.20 in NNW 4.0 mph 6.0 mph 74% 0.00 in 0 W/m2
05:52 26.9 °F 19.7 °F 30.20 in NNW 4.0 mph 4.0 mph 74% 0.00 in 0 W/m2
05:58 26.9 °F 19.7 °F 30.20 in NNW 4.0 mph 11.0 mph 74% 0.00 in 0 W/m2
06:04 26.9 °F 19.7 °F 30.20 in NNW 3.0 mph 5.0 mph 74% 0.00 in 0 W/m2
06:10 26.9 °F 19.7 °F 30.20 in NNE 3.0 mph 3.0 mph 74% 0.00 in 0 W/m2
06:16 26.9 °F 19.7 °F 30.20 in North 2.0 mph 3.0 mph 74% 0.00 in 0 W/m2
06:22 26.8 °F 19.6 °F 30.20 in North 3.0 mph 3.0 mph 74% 0.00 in 0 W/m2
06:28 26.8 °F 19.6 °F 30.20 in NNW 4.0 mph 4.0 mph 74% 0.00 in 0 W/m2
06:34 26.7 °F 19.5 °F 30.20 in NNW 3.0 mph 4.0 mph 74% 0.00 in 0 W/m2
06:40 26.7 °F 19.5 °F 30.20 in North 4.0 mph 4.0 mph 74% 0.00 in 0 W/m2
06:46 26.6 °F 19.4 °F 30.20 in North 4.0 mph 4.0 mph 74% 0.00 in 5 W/m2
06:52 26.5 °F 19.6 °F 30.20 in NNW 4.0 mph 4.0 mph 75% 0.00 in 9 W/m2
06:58 26.5 °F 19.6 °F 30.20 in NNW 4.0 mph 7.0 mph 75% 0.00 in 16 W/m2
07:04 26.5 °F 19.6 °F 30.20 in NW 3.0 mph 4.0 mph 75% 0.00 in 19 W/m2
07:10 26.5 °F 19.6 °F 30.20 in North 3.0 mph 3.0 mph 75% 0.00 in 25 W/m2
07:16 26.5 °F 19.6 °F 30.20 in NW 4.0 mph 5.0 mph 75% 0.00 in 32 W/m2
07:22 26.5 °F 19.6 °F 30.20 in NW 3.0 mph 4.0 mph 75% 0.00 in 37 W/m2
07:28 26.5 °F 19.6 °F 30.19 in North 3.0 mph 5.0 mph 75% 0.00 in 51 W/m2
07:34 26.5 °F 19.6 °F 30.19 in NNW 4.0 mph 5.0 mph 75% 0.00 in 56 W/m2
07:40 26.5 °F 19.6 °F 30.19 in NNW 3.0 mph 3.0 mph 75% 0.00 in 63 W/m2
07:46 26.6 °F 19.7 °F 30.20 in NNW 3.0 mph 5.0 mph 75% 0.00 in 76 W/m2
07:52 26.7 °F 19.8 °F 30.19 in NNW 3.0 mph 3.0 mph 75% 0.00 in 98 W/m2
07:58 26.8 °F 19.9 °F 30.19 in WNW 3.0 mph 5.0 mph 75% 0.00 in 105 W/m2
08:04 26.8 °F 19.9 °F 30.19 in North 3.0 mph 6.0 mph 75% 0.00 in 118 W/m2
08:10 26.9 °F 20.0 °F 30.19 in WNW 3.0 mph 4.0 mph 75% 0.00 in 111 W/m2
08:16 26.9 °F 20.0 °F 30.19 in NNW 3.0 mph 4.0 mph 75% 0.00 in 118 W/m2
08:22 26.9 °F 20.0 °F 30.19 in North 3.0 mph 3.0 mph 75% 0.00 in 121 W/m2
08:28 27.0 °F 20.1 °F 30.19 in NNW 4.0 mph 7.0 mph 75% 0.00 in 141 W/m2
08:34 27.0 °F 20.1 °F 30.19 in North 4.0 mph 6.0 mph 75% 0.00 in 158 W/m2
08:40 27.2 °F 20.3 °F 30.18 in NNW 4.0 mph 4.0 mph 75% 0.00 in 156 W/m2
08:46 27.4 °F 20.5 °F 30.19 in NW 3.0 mph 5.0 mph 75% 0.00 in 169 W/m2
08:52 27.4 °F 20.5 °F 30.19 in North 3.0 mph 6.0 mph 75% 0.00 in 202 W/m2
08:58 27.5 °F 20.6 °F 30.19 in NNW 4.0 mph 6.0 mph 75% 0.00 in 214 W/m2
09:04 27.6 °F 20.4 °F 30.19 in NNW 4.0 mph 5.0 mph 74% 0.00 in 197 W/m2
09:10 27.7 °F 20.5 °F 30.19 in NNW 4.0 mph 4.0 mph 74% 0.00 in 204 W/m2
09:16 27.7 °F 20.5 °F 30.18 in NW 4.0 mph 5.0 mph 74% 0.00 in 258 W/m2
09:22 28.0 °F 20.8 °F 30.18 in NNW 4.0 mph 6.0 mph 74% 0.00 in 265 W/m2
09:28 28.2 °F 21.0 °F 30.19 in North 4.0 mph 6.0 mph 74% 0.00 in 272 W/m2
09:34 28.3 °F 20.7 °F 30.19 in NW 3.0 mph 6.0 mph 73% 0.00 in 295 W/m2
09:40 28.5 °F 20.9 °F 30.19 in NNE 4.0 mph 4.0 mph 73% 0.00 in 285 W/m2
09:46 28.7 °F 21.1 °F 30.19 in NNW 4.0 mph 6.0 mph 73% 0.00 in 258 W/m2
09:52 28.7 °F 21.1 °F 30.19 in NNW 4.0 mph 4.0 mph 73% 0.00 in 269 W/m2
09:58 28.9 °F 21.3 °F 30.19 in NNW 3.0 mph 4.0 mph 73% 0.00 in 292 W/m2
10:04 28.9 °F 21.3 °F 30.19 in NNE 3.0 mph 3.0 mph 73% 0.00 in 334 W/m2
10:10 29.3 °F 21.4 °F 30.19 in NNW 3.0 mph 3.0 mph 72% 0.00 in 330 W/m2
10:16 29.5 °F 21.6 °F 30.20 in NW 3.0 mph 3.0 mph 72% 0.00 in 387 W/m2
10:22 30.4 °F 21.8 °F 30.19 in NNW 3.0 mph 3.0 mph 70% 0.00 in 383 W/m2
10:28 30.8 °F 22.2 °F 30.20 in North 3.0 mph 4.0 mph 70% 0.00 in 380 W/m2
10:34 30.4 °F 21.4 °F 30.20 in NNE 4.0 mph 5.0 mph 69% 0.00 in 345 W/m2
10:40 30.4 °F 22.1 °F 30.20 in NW 3.0 mph 3.0 mph 71% 0.00 in 366 W/m2
10:46 30.5 °F 21.5 °F 30.20 in North 2.0 mph 4.0 mph 69% 0.00 in 429 W/m2
10:52 31.2 °F 22.2 °F 30.20 in NW 3.0 mph 5.0 mph 69% 0.00 in 417 W/m2
10:58 31.3 °F 22.3 °F 30.20 in NNW 3.0 mph 5.0 mph 69% 0.00 in 315 W/m2
11:04 30.9 °F 21.6 °F 30.20 in NW 3.0 mph 4.0 mph 68% 0.00 in 510 W/m2
11:10 31.3 °F 22.0 °F 30.20 in WNW 3.0 mph 4.0 mph 68% 0.00 in 529 W/m2
11:16 31.1 °F 22.1 °F 30.20 in West 3.0 mph 6.0 mph 69% 0.00 in 378 W/m2
11:22 30.9 °F 21.9 °F 30.21 in WNW 3.0 mph 5.0 mph 69% 0.00 in 390 W/m2
11:28 31.7 °F 22.7 °F 30.21 in WNW 3.0 mph 5.0 mph 69% 0.00 in 499 W/m2
11:34 31.7 °F 22.3 °F 30.20 in WNW 2.0 mph 4.0 mph 68% 0.00 in 582 W/m2
11:40 32.0 °F 22.3 °F 30.20 in West 3.0 mph 3.0 mph 67% 0.00 in 557 W/m2
11:46 31.4 °F 22.1 °F 30.20 in West 3.0 mph 4.0 mph 68% 0.00 in 406 W/m2
11:52 33.1 °F 24.0 °F 30.20 in WNW 3.0 mph 3.0 mph 69% 0.00 in 517 W/m2
11:56 33.2 °F 23.1 °F 30.20 in WNW 2.0 mph 4.0 mph 66% 0.00 in 459 W/m2
12:02 32.4 °F 22.3 °F 30.20 in WNW 3.0 mph 3.0 mph 66% 0.00 in 573 W/m2
12:08 32.9 °F 23.5 °F 30.20 in WNW 3.0 mph 6.0 mph 68% 0.00 in 1004 W/m2
12:14 33.5 °F 23.4 °F 30.20 in WNW 3.0 mph 3.0 mph 66% 0.00 in 842 W/m2
12:20 34.5 °F 23.9 °F 30.19 in WNW 3.0 mph 6.0 mph 65% 0.00 in 909 W/m2
12:26 34.4 °F 23.5 °F 30.19 in NW 3.0 mph 6.0 mph 64% 0.00 in 953 W/m2
12:32 33.3 °F 23.2 °F 30.19 in WNW 4.0 mph 4.0 mph 66% 0.00 in 406 W/m2
12:38 34.2 °F 23.7 °F 30.19 in West 4.0 mph 4.0 mph 65% 0.00 in 663 W/m2
12:44 34.8 °F 23.9 °F 30.19 in NNW 3.0 mph 4.0 mph 64% 0.00 in 847 W/m2
12:50 34.3 °F 23.0 °F 30.18 in NW 3.0 mph 3.0 mph 63% 0.00 in 330 W/m2
12:56 33.4 °F 22.9 °F 30.18 in NNW 3.0 mph 3.0 mph 65% 0.00 in 274 W/m2
13:02 33.6 °F 23.1 °F 30.18 in West 3.0 mph 5.0 mph 65% 0.00 in 316 W/m2
13:08 34.3 °F 24.1 °F 30.18 in WNW 3.0 mph 5.0 mph 66% 0.00 in 935 W/m2
13:14 34.0 °F 23.5 °F 30.18 in North 3.0 mph 5.0 mph 65% 0.00 in 227 W/m2
13:20 33.3 °F 23.2 °F 30.18 in NNW 4.0 mph 4.0 mph 66% 0.00 in 188 W/m2
13:26 34.7 °F 24.1 °F 30.18 in WNW 3.0 mph 4.0 mph 65% 0.00 in 865 W/m2
13:32 34.4 °F 23.1 °F 30.18 in NW 4.0 mph 4.0 mph 63% 0.00 in 571 W/m2
13:38 34.3 °F 23.4 °F 30.17 in NNW 4.0 mph 4.0 mph 64% 0.00 in 719 W/m2
13:44 34.7 °F 22.6 °F 30.17 in North 4.0 mph 7.0 mph 61% 0.00 in 137 W/m2
13:50 33.5 °F 23.4 °F 30.17 in North 5.0 mph 5.0 mph 66% 0.00 in 726 W/m2
13:56 34.6 °F 24.0 °F 30.17 in NW 5.0 mph 6.0 mph 65% 0.00 in 701 W/m2
14:02 34.7 °F 23.4 °F 30.17 in NW 5.0 mph 9.0 mph 63% 0.00 in 675 W/m2
14:08 35.1 °F 24.1 °F 30.17 in WNW 4.0 mph 9.0 mph 64% 0.00 in 708 W/m2
14:14 34.8 °F 23.5 °F 30.17 in NNW 4.0 mph 5.0 mph 63% 0.00 in 700 W/m2
14:20 34.5 °F 23.2 °F 30.17 in North 5.0 mph 10.0 mph 63% 0.00 in 288 W/m2
14:26 34.3 °F 23.0 °F 30.18 in NNW 5.0 mph 10.0 mph 63% 0.00 in 563 W/m2
14:32 34.0 °F 22.7 °F 30.17 in NNE 5.0 mph 5.0 mph 63% 0.00 in 483 W/m2
14:38 34.2 °F 22.9 °F 30.17 in NNW 5.0 mph 6.0 mph 63% 0.00 in 396 W/m2
14:44 35.3 °F 24.0 °F 30.17 in NW 4.0 mph 7.0 mph 63% 0.00 in 534 W/m2
14:50 33.7 °F 22.4 °F 30.17 in North 5.0 mph 7.0 mph 63% 0.00 in 181 W/m2
14:56 33.5 °F 23.4 °F 30.17 in NNW 5.0 mph 7.0 mph 66% 0.00 in 135 W/m2
15:02 32.5 °F 22.8 °F 30.18 in North 5.0 mph 8.0 mph 67% 0.00 in 197 W/m2
15:08 32.6 °F 23.6 °F 30.18 in NW 5.0 mph 8.0 mph 69% 0.00 in 257 W/m2
15:14 32.6 °F 23.2 °F 30.18 in NW 5.0 mph 7.0 mph 68% 0.00 in 218 W/m2
15:20 31.8 °F 22.8 °F 30.18 in NW 6.0 mph 6.0 mph 69% 0.00 in 160 W/m2
15:26 31.6 °F 22.6 °F 30.18 in NW 5.0 mph 6.0 mph 69% 0.00 in 88 W/m2
15:32 31.3 °F 22.6 °F 30.18 in North 4.0 mph 7.0 mph 70% 0.00 in 100 W/m2
15:38 31.0 °F 22.4 °F 30.18 in WNW 5.0 mph 7.0 mph 70% 0.00 in 156 W/m2
15:44 31.0 °F 22.7 °F 30.18 in NNW 4.0 mph 8.0 mph 71% 0.00 in 162 W/m2
15:50 31.1 °F 22.8 °F 30.18 in NNW 4.0 mph 5.0 mph 71% 0.00 in 141 W/m2
15:56 31.0 °F 22.7 °F 30.18 in NNW 4.0 mph 5.0 mph 71% 0.00 in 188 W/m2
16:03 31.8 °F 23.1 °F 30.18 in North 4.0 mph 4.0 mph 70% 0.00 in 118 W/m2
16:08 31.4 °F 22.7 °F 30.18 in NW 4.0 mph 4.0 mph 70% 0.00 in 128 W/m2
16:14 31.0 °F 22.7 °F 30.18 in NW 3.0 mph 5.0 mph 71% 0.00 in 107 W/m2
16:20 31.0 °F 22.7 °F 30.18 in NW 4.0 mph 4.0 mph 71% 0.00 in 114 W/m2
16:26 31.0 °F 22.7 °F 30.18 in NNW 4.0 mph 6.0 mph 71% 0.00 in 111 W/m2
16:32 30.9 °F 22.6 °F 30.18 in North 5.0 mph 7.0 mph 71% 0.00 in 91 W/m2
16:38 30.9 °F 22.9 °F 30.18 in WNW 4.0 mph 7.0 mph 72% 0.00 in 74 W/m2
16:44 30.9 °F 22.9 °F 30.18 in NNW 3.0 mph 3.0 mph 72% 0.00 in 63 W/m2
16:50 30.8 °F 23.2 °F 30.18 in NW 3.0 mph 3.0 mph 73% 0.00 in 51 W/m2
16:56 30.6 °F 23.0 °F 30.18 in NW 4.0 mph 8.0 mph 73% 0.00 in 47 W/m2
17:02 30.5 °F 22.9 °F 30.18 in NNW 4.0 mph 4.0 mph 73% 0.00 in 35 W/m2
17:08 30.4 °F 22.8 °F 30.18 in NNW 4.0 mph 4.0 mph 73% 0.00 in 28 W/m2
17:14 30.3 °F 23.0 °F 30.18 in NNW 4.0 mph 4.0 mph 74% 0.00 in 28 W/m2
17:20 30.2 °F 22.9 °F 30.18 in North 4.0 mph 4.0 mph 74% 0.00 in 23 W/m2
17:26 30.2 °F 22.9 °F 30.18 in NNW 3.0 mph 5.0 mph 74% 0.00 in 18 W/m2
17:32 30.1 °F 22.8 °F 30.18 in North 3.0 mph 4.0 mph 74% 0.00 in 12 W/m2
17:38 30.0 °F 23.0 °F 30.18 in NNW 4.0 mph 4.0 mph 75% 0.00 in 9 W/m2
17:44 30.0 °F 23.0 °F 30.18 in NNW 3.0 mph 4.0 mph 75% 0.00 in 7 W/m2
17:50 30.0 °F 23.0 °F 30.18 in NNW 2.0 mph 2.0 mph 75% 0.00 in 5 W/m2
17:56 29.9 °F 22.9 °F 30.18 in NNW 2.0 mph 3.0 mph 75% 0.00 in 0 W/m2
18:02 29.9 °F 23.3 °F 30.18 in NW 3.0 mph 3.0 mph 76% 0.00 in 0 W/m2
18:08 29.8 °F 23.2 °F 30.18 in NW 3.0 mph 3.0 mph 76% 0.00 in 0 W/m2
18:14 29.8 °F 23.2 °F 30.18 in NW 2.0 mph 3.0 mph 76% 0.00 in 0 W/m2
18:20 29.8 °F 23.2 °F 30.18 in NW 2.0 mph 2.0 mph 76% 0.00 in 0 W/m2
18:26 29.8 °F 23.2 °F 30.18 in NW 2.0 mph 3.0 mph 76% 0.00 in 0 W/m2
18:32 29.8 °F 23.2 °F 30.18 in NW 1.0 mph 1.0 mph 76% 0.00 in 0 W/m2
18:38 29.8 °F 23.2 °F 30.18 in NW 1.0 mph 2.0 mph 76% 0.00 in 0 W/m2
18:44 29.7 °F 23.1 °F 30.18 in NW 1.0 mph 2.0 mph 76% 0.00 in 0 W/m2
18:50 29.8 °F 23.2 °F 30.17 in NW 1.0 mph 1.0 mph 76% 0.00 in 0 W/m2
18:56 29.8 °F 23.5 °F 30.17 in NW 1.0 mph 1.0 mph 77% 0.00 in 0 W/m2
19:02 29.8 °F 23.5 °F 30.17 in NW 1.0 mph 1.0 mph 77% 0.00 in 0 W/m2
19:08 29.8 °F 23.5 °F 30.17 in Calm   1.0 mph 77% 0.00 in 0 W/m2
19:14 29.7 °F 23.4 °F 30.17 in Calm   2.0 mph 77% 0.00 in 0 W/m2
19:20 29.8 °F 23.5 °F 30.17 in NW 1.0 mph 1.0 mph 77% 0.00 in 0 W/m2
19:26 29.8 °F 23.8 °F 30.17 in NW 1.0 mph 2.0 mph 78% 0.00 in 0 W/m2
19:32 29.7 °F 23.7 °F 30.17 in NW 1.0 mph 1.0 mph 78% 0.00 in 0 W/m2
19:38 29.7 °F 23.7 °F 30.17 in Calm   1.0 mph 78% 0.00 in 0 W/m2
19:44 29.8 °F 23.8 °F 30.17 in Calm     78% 0.00 in 0 W/m2
19:50 29.8 °F 23.8 °F 30.17 in Calm     78% 0.00 in 0 W/m2
19:56 29.7 °F 23.7 °F 30.17 in Calm     78% 0.00 in 0 W/m2
20:02 29.7 °F 23.7 °F 30.17 in Calm     78% 0.00 in 0 W/m2
20:08 29.7 °F 24.0 °F 30.16 in Calm     79% 0.00 in 0 W/m2
20:14 29.6 °F 23.9 °F 30.16 in Calm     79% 0.00 in 0 W/m2
20:20 29.6 °F 23.9 °F 30.15 in Calm     79% 0.00 in 0 W/m2
20:26 29.6 °F 23.9 °F 30.15 in Calm     79% 0.00 in 0 W/m2
20:32 29.6 °F 23.9 °F 30.15 in NW 1.0 mph 2.0 mph 79% 0.00 in 0 W/m2
20:38 29.7 °F 23.7 °F 30.15 in NW 1.0 mph 2.0 mph 78% 0.00 in 0 W/m2
20:44 29.7 °F 23.7 °F 30.15 in Calm   1.0 mph 78% 0.00 in 0 W/m2
20:50 29.7 °F 24.0 °F 30.15 in NW 1.0 mph 1.0 mph 79% 0.00 in 0 W/m2
20:56 29.7 °F 23.7 °F 30.15 in NW 1.0 mph 1.0 mph 78% 0.00 in 0 W/m2
21:02 29.8 °F 23.8 °F 30.15 in Calm     78% 0.00 in 0 W/m2
21:08 29.8 °F 23.8 °F 30.15 in NW 1.0 mph 2.0 mph 78% 0.00 in 0 W/m2
21:14 29.8 °F 23.8 °F 30.14 in NW 1.0 mph 1.0 mph 78% 0.00 in 0 W/m2
21:20 29.8 °F 23.8 °F 30.14 in NW 1.0 mph 1.0 mph 78% 0.00 in 0 W/m2
21:26 29.8 °F 23.5 °F 30.14 in NW 1.0 mph 2.0 mph 77% 0.00 in 0 W/m2
21:32 29.9 °F 23.6 °F 30.14 in ENE 1.0 mph 2.0 mph 77% 0.00 in 0 W/m2
21:38 29.9 °F 23.6 °F 30.13 in North 2.0 mph 2.0 mph 77% 0.00 in 0 W/m2
21:44 29.9 °F 23.3 °F 30.13 in North 2.0 mph 4.0 mph 76% 0.00 in 0 W/m2
21:50 30.0 °F 23.4 °F 30.13 in North 2.0 mph 4.0 mph 76% 0.00 in 0 W/m2
21:56 30.0 °F 23.4 °F 30.13 in North 2.0 mph 4.0 mph 76% 0.00 in 0 W/m2
22:02 29.9 °F 23.3 °F 30.13 in North 1.0 mph 2.0 mph 76% 0.00 in 0 W/m2
22:08 29.9 °F 23.3 °F 30.13 in North 1.0 mph 3.0 mph 76% 0.00 in 0 W/m2
22:14 29.9 °F 23.3 °F 30.12 in NNE 2.0 mph 4.0 mph 76% 0.00 in 0 W/m2
22:20 29.9 °F 23.3 °F 30.12 in NNW 2.0 mph 5.0 mph 76% 0.00 in 0 W/m2
22:26 29.9 °F 23.3 °F 30.12 in NNW 3.0 mph 5.0 mph 76% 0.00 in 0 W/m2
22:32 29.9 °F 23.3 °F 30.12 in NNE 2.0 mph 4.0 mph 76% 0.00 in 0 W/m2
22:38 29.8 °F 23.2 °F 30.11 in North 2.0 mph 4.0 mph 76% 0.00 in 0 W/m2
22:44 29.8 °F 23.2 °F 30.11 in NNW 2.0 mph 5.0 mph 76% 0.00 in 0 W/m2
22:50 29.8 °F 23.2 °F 30.11 in NE 2.0 mph 5.0 mph 76% 0.00 in 0 W/m2
22:56 29.8 °F 22.8 °F 30.11 in North 2.0 mph 5.0 mph 75% 0.00 in 0 W/m2
23:02 29.9 °F 22.9 °F 30.11 in North 2.0 mph 2.0 mph 75% 0.00 in 0 W/m2
23:08 29.8 °F 22.8 °F 30.11 in North 1.0 mph 2.0 mph 75% 0.00 in 0 W/m2
23:14 29.8 °F 22.8 °F 30.11 in North 1.0 mph 2.0 mph 75% 0.00 in 0 W/m2
23:20 29.7 °F 23.1 °F 30.11 in North 2.0 mph 2.0 mph 76% 0.00 in 0 W/m2
23:26 29.7 °F 23.1 °F 30.11 in North 1.0 mph 2.0 mph 76% 0.00 in 0 W/m2
23:32 29.6 °F 23.0 °F 30.11 in North 1.0 mph 1.0 mph 76% 0.00 in 0 W/m2
23:38 29.6 °F 23.0 °F 30.10 in North 1.0 mph 1.0 mph 76% 0.00 in 0 W/m2
23:44 29.5 °F 22.9 °F 30.10 in Calm   1.0 mph 76% 0.00 in 0 W/m2
23:50 29.4 °F 22.8 °F 30.10 in Calm   2.0 mph 76% 0.00 in 0 W/m2
23:56 29.4 °F 22.8 °F 30.10 in Calm   2.0 mph 76% 0.00 in 0 W/m2
Country Meadow, Clay, NY, USA
Compliments of Weather Underground - 2 mb